GEFSCGP_500_meanwind_186.txt.gz
Wind_Speed
5 6 7 8 9 10 12 13 14 16 17 19 19 21 22 23 24 24 24 26 27 28 29 28 28 28 28 29 30 31 31 30 29 29 28 28 27 26 26 26 27 26 26 25
6 7 8 9 10 12 14 15 16 17 18 19 20 21 21 23 24 25 26 27 28 28 29 30 29 29 29 30 31 31 31 30 29 29 29 28 27 27 27 27 26 26 25 25
7 7 10 11 13 14 16 18 18 18 18 19 21 21 21 23 24 25 26 27 28 29 30 30 30 30 30 30 30 31 31 30 30 29 29 29 28 28 27 26 26 26 26 25
8 9 11 13 14 15 17 18 19 20 19 18 18 20 22 23 24 25 25 26 27 29 30 30 30 29 29 30 30 30 30 30 30 29 28 28 28 27 27 26 25 25 24 25
9 11 12 14 15 17 18 18 19 19 17 16 17 20 22 23 24 25 25 25 26 27 29 29 30 29 29 30 31 31 30 29 29 29 28 27 26 26 26 25 25 24 24 23
12 14 15 15 16 18 19 18 18 17 16 15 16 19 20 21 22 23 24 25 27 28 28 29 30 30 30 30 31 31 31 31 30 29 27 26 26 25 25 24 23 23 23 23
13 15 17 17 18 18 19 20 18 17 16 16 17 19 21 22 24 25 26 27 28 28 29 30 31 30 30 30 30 31 30 30 28 27 26 25 25 25 24 23 22 22 23 23
13 15 17 18 19 19 20 20 20 20 20 19 19 20 22 22 23 25 26 28 29 29 29 29 30 30 29 29 29 29 29 28 27 25 25 24 25 24 23 23 22 23 23 23
15 16 17 19 19 20 20 19 19 21 22 22 23 22 22 22 23 24 26 28 28 29 29 29 30 30 30 29 29 28 28 28 26 24 24 23 22 22 22 22 22 22 22 21
18 17 17 18 19 19 19 19 19 21 22 23 24 24 23 23 24 26 27 27 28 29 29 29 29 29 29 29 29 28 27 25 26 25 24 22 22 22 22 21 20 20 20 20
19 20 19 18 19 19 18 19 21 22 23 24 25 25 25 24 25 26 26 27 28 28 28 28 29 29 28 28 28 27 26 25 25 24 23 21 20 20 19 20 19 19 19 19
20 21 20 19 19 19 20 20 21 22 23 24 26 27 25 24 25 26 27 28 28 29 29 29 29 29 28 27 27 26 25 24 24 23 23 21 20 19 19 19 19 19 18 18
21 21 20 18 18 19 19 20 21 22 23 23 24 25 25 25 26 27 28 28 28 28 28 28 29 29 27 26 26 25 24 23 23 23 22 20 19 19 19 18 18 18 18 18
21 21 20 19 19 20 19 19 20 21 22 23 24 25 25 26 27 27 27 28 28 28 29 29 29 28 28 26 26 25 23 22 22 21 20 20 19 18 17 17 17 17 17 17
21 21 20 20 20 21 21 20 20 21 22 23 24 25 27 27 28 28 28 28 29 30 30 29 29 28 25 24 24 23 22 21 21 20 19 20 19 18 18 18 17 17 17 17
22 21 20 20 20 20 20 21 21 22 22 23 24 26 27 28 29 29 28 28 29 29 29 28 28 27 25 23 22 22 22 21 20 19 19 19 18 18 17 17 17 16 17 16
22 22 21 20 20 20 20 21 21 21 22 23 25 27 28 28 28 28 27 27 27 27 27 27 27 26 24 23 23 22 21 21 20 19 17 17 17 17 17 16 16 16 16 15
23 22 22 22 21 21 22 22 22 23 24 25 26 27 28 28 28 26 25 25 26 26 26 26 25 24 24 23 23 21 20 19 19 16 15 15 16 16 16 15 16 16 15 13
23 23 23 24 24 23 23 23 24 25 25 26 26 27 27 27 26 25 24 25 25 25 25 26 25 24 23 22 22 20 19 18 17 15 14 14 15 15 15 15 15 14 13 12
23 23 24 25 25 25 24 24 25 25 25 26 26 25 25 26 26 25 24 24 24 25 26 25 24 23 22 21 21 20 18 17 16 15 12 12 13 13 14 14 13 12 11 11
25 24 25 26 26 26 26 25 26 26 26 24 24 24 24 25 26 25 24 24 24 25 25 25 23 22 21 20 20 18 17 16 15 13 11 11 12 13 12 12 12 10 10 11
26 26 26 27 27 26 27 26 26 26 25 25 25 25 25 26 26 25 25 25 24 24 24 24 23 21 20 19 18 16 16 15 14 12 10 10 11 11 11 11 11 10 10 10
26 27 28 28 27 27 27 27 26 26 25 25 25 25 26 26 26 26 26 26 25 24 24 23 21 19 18 17 16 15 14 14 13 10 9 10 10 10 11 12 11 10 9 10
26 27 28 28 27 27 28 27 27 27 26 26 27 27 27 27 27 26 26 26 25 23 22 20 19 17 16 15 14 13 13 11 10 8 9 9 9 10 11 11 10 10 9 10
28 27 27 26 26 26 26 27 27 27 27 28 28 28 28 28 27 26 25 24 22 20 20 18 16 16 14 13 12 12 10 9 8 7 8 8 8 8 9 9 9 9 10 11
27 27 27 26 26 26 26 26 27 28 28 28 27 27 27 26 26 24 23 22 20 19 17 16 15 13 12 11 10 10 8 8 7 6 6 6 6 7 8 8 9 9 10 11

GEFSCGP_500_meanwind_192.txt.gz
Wind_Speed
7 9 10 11 12 13 14 15 16 17 18 19 19 20 20 21 21 22 23 24 25 26 27 27 28 28 28 27 28 28 28 29 30 29 28 28 29 28 28 28 28 28 27 27
9 10 12 12 13 15 16 17 18 18 20 20 20 20 21 21 22 22 23 25 25 26 27 28 29 29 29 29 29 29 29 30 29 28 28 28 29 29 28 28 28 28 27 27
11 12 13 14 15 16 17 18 19 21 21 20 21 22 21 22 23 24 25 26 27 27 27 28 28 28 29 29 29 29 29 29 29 28 28 28 30 30 30 30 29 27 27 26
11 13 15 15 16 17 18 18 20 20 21 21 21 23 22 23 24 25 26 26 27 27 27 27 28 28 29 29 29 29 29 29 29 29 30 29 29 29 29 28 27 27 27 26
13 15 15 16 17 18 19 19 20 21 21 21 21 23 23 24 24 25 25 26 27 27 28 28 29 29 29 29 29 29 29 28 29 29 29 29 29 28 27 27 27 27 26 25
15 16 16 17 18 19 20 20 21 21 22 22 22 23 23 23 24 24 25 26 27 28 28 28 29 29 29 29 29 29 29 29 29 29 28 28 28 27 26 26 26 25 24 24
16 18 18 19 19 20 21 21 22 23 22 22 23 23 23 23 24 25 25 26 27 28 27 28 29 29 29 28 29 29 29 28 28 28 28 27 27 25 24 24 24 22 23 23
16 17 18 19 20 21 21 22 23 24 24 23 23 23 24 25 25 26 26 27 27 27 27 28 28 29 29 29 29 30 29 29 28 28 27 26 25 24 24 22 22 21 21 21
16 16 18 19 20 21 22 22 22 23 24 24 23 24 24 24 25 26 26 27 27 27 27 28 28 29 29 30 30 29 29 28 28 29 28 26 25 25 23 21 20 20 20 20
17 18 18 20 21 21 22 22 22 22 24 24 24 24 23 23 24 25 26 27 27 28 28 28 29 29 29 29 30 29 29 28 27 27 27 26 26 24 22 20 20 19 19 20
18 19 19 20 20 20 21 21 21 22 23 25 25 23 23 23 24 26 27 27 28 28 27 28 28 29 30 30 29 29 29 28 26 25 25 25 24 23 21 19 19 18 18 20
19 19 19 19 19 19 20 20 21 21 22 23 24 23 23 24 25 26 27 27 27 27 27 28 29 29 29 29 28 27 27 27 26 24 24 23 21 20 20 20 18 17 18 18
19 19 19 19 20 20 21 20 21 21 22 22 24 23 24 24 25 27 27 27 27 27 28 29 28 28 29 28 28 27 25 24 24 24 24 23 21 20 19 19 18 18 18 18
20 19 19 21 21 22 21 21 21 22 22 23 24 24 24 25 26 27 27 27 27 27 28 28 28 28 28 27 27 26 25 24 24 23 24 23 21 20 20 19 18 17 17 18
20 20 20 21 22 22 22 22 22 23 23 24 24 24 24 25 25 25 25 26 26 26 26 27 28 28 28 27 26 25 25 24 24 23 23 22 21 19 18 18 17 16 17 17
21 22 22 22 22 22 22 23 22 23 23 24 24 24 24 25 25 26 26 26 26 26 26 26 26 27 27 26 26 25 24 24 23 21 20 20 20 18 18 17 16 16 16 16
22 23 23 22 22 23 22 23 23 22 22 23 24 24 25 25 26 26 26 26 27 26 26 26 26 26 25 25 25 25 23 22 21 20 19 19 18 16 16 16 15 15 14 15
22 23 24 24 23 23 24 24 24 23 23 24 25 25 26 26 26 26 26 27 27 26 26 26 26 26 26 26 25 24 23 22 21 20 18 17 16 16 16 15 14 13 13 13
23 24 25 25 25 25 24 24 24 24 24 24 25 26 26 26 26 25 26 27 27 26 26 26 26 25 25 25 24 22 22 21 20 19 18 17 16 16 15 14 13 13 13 13
24 25 25 26 26 26 25 24 24 24 24 24 25 26 26 27 27 26 26 26 26 26 25 26 26 25 25 24 22 22 21 20 18 18 17 16 16 16 14 13 13 12 12 13
24 25 25 25 25 24 24 24 24 24 25 25 26 27 27 27 27 26 25 25 26 25 25 25 25 25 24 23 22 21 20 18 18 17 17 16 16 15 14 13 12 12 12 12
25 25 25 25 25 24 24 25 25 25 26 26 27 27 27 27 26 25 25 25 26 25 25 25 25 24 24 23 22 20 19 17 17 17 16 15 14 14 13 11 11 11 12 13
26 26 27 26 26 26 26 27 27 27 27 28 28 28 27 27 25 25 25 25 25 24 24 24 24 24 23 22 20 18 16 15 16 16 15 14 13 12 12 11 10 11 12 12
27 27 27 27 27 27 27 28 28 28 29 29 29 28 27 26 25 25 24 24 24 24 23 23 23 23 22 20 18 17 15 14 14 13 13 12 11 10 10 9 10 11 11 12
29 29 29 28 27 28 28 28 29 29 29 29 29 28 28 26 25 25 25 25 25 24 24 23 22 21 20 19 17 16 14 13 13 12 12 10 10 10 9 9 10 11 11 13
29 29 30 29 29 29 29 30 30 30 30 29 29 28 27 26 25 26 26 26 25 25 23 21 20 19 18 17 16 14 13 12 11 10 10 9 8 8 9 9 10 11 12 13

GEFSCGP_500_meanwind_198.txt.gz
Wind_Speed
6 6 7 8 9 10 12 13 15 17 17 18 18 19 20 20 21 21 21 22 22 24 25 26 26 27 27 27 27 27 27 28 28 28 27 27 27 27 27 27 26 26 26 27
7 8 9 10 11 12 13 14 16 17 18 18 18 19 20 20 21 21 22 23 24 25 26 26 27 27 27 28 28 28 28 28 29 28 27 26 26 26 27 26 26 26 27 28
10 11 11 11 12 13 15 16 16 17 18 19 19 20 21 21 22 22 23 23 23 24 25 26 26 27 28 28 29 29 29 30 30 29 28 27 27 27 26 26 26 26 27 27
11 11 12 13 13 14 15 16 17 18 19 19 19 20 22 22 23 23 23 24 24 25 26 26 27 27 28 28 29 29 29 28 28 28 28 28 27 27 27 27 27 26 26 27
11 12 13 14 15 15 16 16 17 18 19 19 20 20 21 22 23 23 24 24 25 26 26 26 27 27 28 28 28 28 28 28 27 27 28 27 27 27 27 27 27 26 26 26
12 13 14 15 16 16 17 17 18 19 19 20 21 21 21 23 23 24 24 25 26 26 27 28 28 28 28 28 28 28 28 27 27 27 27 27 27 26 26 25 25 25 25 24
13 14 15 16 17 18 18 17 17 18 19 20 23 23 24 24 24 24 25 26 26 26 27 27 28 28 28 28 28 28 27 27 27 27 26 26 26 26 25 25 25 25 24 24
14 15 16 17 17 18 18 18 18 19 21 21 23 24 24 24 25 25 26 26 27 27 27 27 28 28 29 29 29 28 27 26 26 26 26 26 26 26 25 25 25 24 23 23
14 16 17 17 18 18 18 18 19 20 22 22 22 25 25 25 26 26 26 27 27 28 28 28 28 29 29 29 29 28 27 27 27 27 27 26 26 25 25 24 24 22 21 21
14 15 17 17 18 18 18 18 19 19 20 21 22 24 25 26 26 26 26 27 28 28 28 28 28 28 28 28 28 27 28 28 27 27 26 26 25 24 24 23 22 21 20 20
14 15 16 17 17 18 19 19 19 19 20 21 22 24 26 26 27 27 27 28 28 28 28 28 28 28 28 28 28 27 27 26 26 26 26 26 24 23 23 22 21 20 19 19
14 14 16 16 17 18 18 19 20 20 20 21 23 25 27 27 28 28 28 28 28 28 28 28 28 28 28 28 27 27 26 26 26 26 25 24 22 22 21 21 20 20 20 20
15 15 16 18 19 19 19 20 20 20 21 21 23 24 27 27 28 28 28 28 28 28 27 28 28 28 28 27 27 27 27 25 24 23 22 21 20 19 19 19 19 19 20 19
16 16 16 17 18 20 20 20 20 20 21 22 23 25 26 27 27 27 27 28 28 28 28 28 28 27 27 26 26 26 26 24 23 22 21 20 20 19 18 18 18 19 19 19
17 17 18 19 19 20 20 20 20 21 22 22 23 25 26 26 27 27 27 28 28 28 28 27 27 26 26 26 25 24 24 23 22 21 21 20 18 18 18 18 18 19 19 18
17 18 19 19 19 20 20 19 20 21 22 23 24 25 26 26 26 26 26 27 27 27 27 26 25 25 25 25 24 23 23 22 22 20 19 19 18 17 17 18 18 18 18 17
18 19 19 19 20 20 20 20 20 21 22 23 24 24 25 25 25 25 26 27 27 26 26 25 24 25 25 24 23 23 23 22 21 19 19 18 17 17 17 17 17 17 16 16
19 19 20 21 21 20 21 21 21 21 22 23 24 24 25 25 25 25 26 27 26 26 25 24 24 25 25 24 24 23 22 21 20 18 17 16 16 15 15 15 15 15 15 14
19 20 21 21 21 21 22 22 23 23 23 24 24 24 25 25 25 25 25 26 25 25 25 24 24 24 24 24 23 22 21 20 19 18 17 15 15 14 14 14 14 13 13 13
20 21 21 21 21 22 23 23 23 25 25 25 25 25 25 25 25 24 25 24 24 24 24 24 24 24 23 22 21 20 20 18 18 16 15 14 14 15 14 14 13 13 12 12
21 21 22 22 22 24 25 25 25 25 25 26 26 26 26 26 25 25 24 24 24 24 24 24 23 22 22 21 20 19 19 17 16 16 15 14 14 14 14 14 13 12 12 11
22 23 23 23 23 25 26 26 25 26 27 27 27 27 27 26 26 25 24 24 24 24 24 24 22 22 21 21 20 19 17 16 15 15 14 14 13 13 13 13 12 12 11 9
23 24 24 24 25 26 27 27 28 28 28 27 27 27 28 27 26 26 25 25 25 24 24 23 22 21 21 20 19 18 17 16 14 14 14 13 13 12 12 12 11 10 8 8
25 24 25 25 26 27 27 28 28 28 28 28 28 28 28 28 27 26 25 24 24 24 24 23 22 20 20 19 18 17 16 14 14 13 13 13 13 12 11 11 10 9 8 8
26 26 26 26 27 28 28 28 28 28 28 28 29 29 28 28 27 26 25 24 24 23 23 22 21 20 19 18 17 16 15 14 13 13 12 12 12 11 10 10 9 9 8 8
27 28 28 28 28 29 29 28 29 29 29 28 28 28 28 28 27 26 25 24 23 22 21 20 20 19 19 18 17 15 14 12 12 11 11 11 10 9 9 9 9 9 10 10

GEFSCGP_500_meanwind_204.txt.gz
Wind_Speed
4 4 5 7 9 11 11 11 11 13 15 18 19 19 20 23 24 24 24 25 26 26 26 26 27 27 28 28 29 29 29 30 30 30 30 30 29 28 27 26 25 26 26 26
5 7 9 10 11 12 11 11 12 15 17 18 19 19 21 22 25 27 27 27 27 27 27 27 27 27 28 28 29 29 29 29 30 31 31 31 30 28 27 26 26 25 25 25
6 9 12 11 12 12 11 12 13 17 18 17 18 20 21 23 25 26 26 27 28 28 28 28 28 28 28 29 29 29 29 30 31 31 31 30 29 28 28 27 27 26 25 26
6 10 11 12 12 11 12 13 14 17 17 16 16 18 21 25 25 26 26 26 27 28 29 30 30 29 29 29 29 29 29 30 31 31 30 30 29 28 28 27 26 26 26 26
8 10 11 13 13 13 13 12 13 15 16 16 15 16 21 25 25 26 28 27 28 29 31 32 31 31 30 29 30 30 29 29 30 30 30 30 29 28 27 26 26 26 25 26
10 11 12 13 13 14 14 13 11 14 15 16 17 18 21 25 26 28 28 29 30 31 32 32 32 31 31 30 30 30 30 30 30 30 29 29 28 27 26 25 25 25 25 25
10 13 13 14 14 14 14 13 13 14 15 17 19 21 23 25 26 27 29 31 31 32 32 32 32 30 31 31 31 30 30 30 30 29 28 28 28 27 26 25 25 24 24 24
9 11 14 15 15 15 15 15 15 17 17 19 19 19 21 24 27 28 30 31 31 32 32 33 33 32 31 31 31 30 29 29 28 28 28 28 28 26 25 24 24 23 23 23
10 12 14 15 15 15 15 14 15 16 17 18 18 21 23 24 27 29 31 31 31 32 33 34 33 32 31 31 31 30 29 28 27 27 26 26 25 24 24 23 23 23 23 22
12 13 13 14 15 14 15 15 15 15 17 18 19 19 24 26 27 30 32 33 32 33 33 33 33 33 31 31 30 29 28 27 27 26 25 24 23 23 23 23 22 22 22 22
13 14 13 14 14 13 15 15 16 16 17 19 20 21 24 26 30 31 32 33 33 34 35 33 32 32 31 30 29 28 28 27 25 24 23 23 22 22 23 23 22 21 21 21
13 14 14 14 15 15 16 16 16 18 18 18 20 22 25 28 29 30 31 32 33 33 33 32 31 30 29 29 29 28 27 27 25 24 23 22 22 22 22 22 21 21 20 20
14 15 14 14 16 17 17 17 17 19 20 21 22 22 25 29 29 30 31 32 33 32 31 30 29 29 29 29 28 27 27 26 25 24 24 23 22 22 21 20 19 19 19 19
15 15 15 15 16 18 18 18 18 20 21 22 22 24 27 29 30 31 32 32 32 31 30 30 29 28 27 27 27 27 26 25 24 24 24 24 23 21 19 18 17 18 18 18
16 16 16 16 17 18 19 20 20 21 22 23 24 26 28 29 30 30 31 31 30 29 30 30 29 27 27 26 26 26 25 25 25 24 24 23 21 19 18 17 17 17 17 17
17 17 17 17 17 19 19 20 20 21 22 24 25 26 28 29 30 30 30 29 29 29 29 29 28 28 27 26 26 25 25 24 24 23 22 22 21 18 17 16 15 15 16 17
18 18 18 18 18 20 20 20 21 21 23 24 26 27 28 29 29 29 29 29 29 29 29 28 28 27 26 26 25 24 24 24 23 22 21 21 20 18 17 16 15 15 16 16
18 18 19 19 20 20 21 21 22 22 23 25 26 27 28 28 28 29 29 30 29 29 29 29 28 27 26 26 25 24 23 23 22 21 20 19 19 17 16 15 15 14 15 16
18 18 19 19 20 22 22 21 22 23 25 26 27 27 27 27 27 28 29 29 29 30 30 29 28 26 26 25 24 23 22 22 21 20 18 18 18 16 15 15 15 15 15 15
18 19 21 21 21 23 24 23 24 25 26 26 26 27 28 28 28 28 29 30 30 30 29 28 27 26 25 24 23 22 21 20 20 19 18 18 17 16 16 15 14 15 15 15
21 22 22 23 23 24 25 25 25 25 27 27 27 29 29 29 29 30 30 30 30 29 28 27 27 25 24 23 22 21 20 20 19 19 18 17 16 16 15 14 14 14 14 13
20 21 23 24 25 25 26 26 26 27 28 29 29 29 29 29 30 30 30 29 29 28 27 26 26 24 23 22 21 21 20 19 19 18 17 16 16 15 15 14 13 13 13 13
22 23 24 25 25 27 28 28 29 29 30 30 30 30 30 30 29 29 29 28 27 27 26 26 25 24 22 21 20 19 19 18 18 18 17 16 15 14 14 13 12 12 12 12
24 24 26 26 27 28 29 30 31 31 31 31 31 31 31 30 30 30 30 28 27 27 26 25 24 23 21 20 19 18 18 18 17 16 16 15 15 14 13 12 12 12 11 11
27 28 28 28 29 30 31 31 32 32 32 32 32 31 31 31 30 30 29 27 27 26 25 23 22 21 20 19 17 16 16 16 15 15 15 15 14 12 12 12 12 12 12 12
28 29 30 30 31 32 32 32 33 33 32 32 32 31 30 29 29 28 27 26 25 23 22 21 20 19 17 16 16 16 16 15 15 14 14 13 12 12 12 12 12 11 11 11

GEFSCGP_500_meanwind_210.txt.gz
Wind_Speed
5 4 2 3 6 7 9 12 11 11 11 14 15 16 18 20 21 22 23 22 23 25 25 26 25 25 25 25 25 25 25 26 26 27 27 27 27 27 27 27 26 25 25 23
4 3 3 5 7 8 11 13 12 11 12 14 15 15 16 18 19 21 22 23 24 25 26 27 26 25 26 26 27 26 26 26 27 27 27 28 28 28 27 27 26 25 24 23
4 3 5 7 8 9 11 13 13 12 11 13 15 16 17 19 20 21 23 22 22 24 26 27 28 28 27 27 28 28 28 28 28 29 29 29 28 27 26 26 26 25 23 23
5 5 6 7 8 9 10 11 12 12 12 13 16 18 18 20 22 23 23 22 23 25 27 28 29 30 29 28 29 29 30 30 30 29 29 28 27 27 26 25 25 25 24 23
5 7 7 7 8 9 11 11 12 12 13 14 15 18 19 22 23 23 24 25 25 26 28 29 30 30 30 30 31 31 31 31 30 29 29 28 27 26 26 26 25 24 24 23
6 6 7 7 8 10 12 12 12 12 12 13 15 18 20 21 22 22 25 25 26 27 27 29 30 31 32 32 33 32 31 30 30 29 28 27 26 25 25 24 24 23 23 23
6 7 8 9 10 11 13 13 12 11 12 14 16 18 19 20 21 22 23 24 26 27 27 28 30 31 32 32 32 31 31 30 30 29 28 27 26 25 24 23 23 23 23 21
8 8 9 10 11 12 12 13 14 15 15 16 17 19 19 20 22 22 23 25 26 28 29 30 31 31 31 31 31 31 30 30 30 29 27 26 25 25 23 22 22 21 21 21
8 8 9 11 12 12 13 14 15 16 17 17 18 19 20 21 23 24 25 26 27 29 30 30 30 30 30 31 31 30 29 30 29 28 26 25 24 22 20 19 19 19 20 20
10 10 10 11 12 13 14 15 15 16 18 18 18 20 22 22 24 25 26 27 28 29 30 30 30 29 29 30 30 30 29 29 28 27 25 23 22 20 20 18 17 17 17 19
11 11 10 12 13 14 14 15 16 17 18 20 21 22 24 24 25 26 26 28 29 30 30 30 30 29 29 30 29 28 28 27 27 26 23 21 20 19 19 18 17 17 17 17
12 13 13 13 13 14 15 16 17 18 19 20 22 24 25 25 26 27 27 29 29 30 30 30 30 29 30 30 28 27 26 26 25 24 23 20 19 18 18 17 17 16 16 15
13 13 14 15 15 15 15 16 16 18 20 21 23 25 25 26 27 28 28 29 29 29 29 29 29 29 29 29 27 27 26 25 24 23 21 19 18 18 17 16 16 15 14 14
13 14 14 16 16 16 16 16 16 17 19 21 23 24 25 25 26 27 27 28 28 27 28 29 29 28 28 27 27 27 26 25 24 22 20 19 18 17 17 15 14 14 13 13
15 15 16 16 17 17 17 17 17 17 19 21 23 24 25 25 26 26 27 27 26 27 28 28 28 28 27 27 26 26 25 24 23 22 20 19 18 17 16 15 14 14 13 13
16 16 17 16 17 17 17 18 18 19 20 21 23 23 24 25 25 26 27 27 27 27 29 29 28 27 27 26 25 25 24 23 22 21 20 18 17 17 16 15 13 13 14 13
17 17 17 16 16 18 19 19 19 20 21 22 24 24 25 25 26 26 27 27 28 28 28 27 27 27 27 26 25 25 24 23 22 21 19 18 17 16 15 15 13 13 12 12
17 17 18 18 18 19 20 20 21 22 23 23 24 24 24 24 25 26 27 27 28 28 27 28 28 28 27 27 26 25 24 22 21 20 19 18 16 14 14 14 14 13 13 12
16 17 18 20 20 20 19 20 22 23 24 24 23 23 23 24 24 25 26 27 28 28 28 28 28 28 28 27 25 23 22 21 20 18 17 17 15 15 15 15 14 13 12 11
16 17 18 19 20 20 21 21 22 23 23 23 23 23 23 24 25 26 27 27 28 28 28 28 28 27 26 25 23 22 21 20 18 17 16 15 15 15 15 15 14 13 13 13
16 17 18 19 20 21 22 22 22 23 24 23 23 24 24 25 26 27 27 27 28 28 28 27 26 24 24 22 21 21 20 19 17 16 15 15 16 16 16 15 14 14 14 14
18 19 20 21 21 22 23 23 24 24 24 24 25 25 26 26 27 27 27 27 27 27 27 27 26 24 22 21 20 20 18 17 16 16 16 17 17 17 16 15 15 15 15 15
19 20 21 21 22 23 24 24 25 25 25 25 26 26 26 27 27 26 26 26 26 26 26 26 25 23 21 21 20 18 17 17 17 17 17 17 17 16 15 15 14 15 15 15
21 21 22 22 23 24 24 25 25 25 26 26 27 27 27 27 26 26 26 27 26 26 25 25 23 21 20 19 18 18 18 18 17 17 17 17 16 15 14 14 14 15 15 15
22 22 22 23 24 25 25 26 26 26 26 27 27 27 27 26 26 26 26 26 26 25 24 23 22 20 19 19 19 19 19 18 17 16 16 16 15 15 15 15 15 15 16 15
24 24 24 24 24 25 25 26 26 26 26 27 27 27 27 26 26 25 25 25 25 24 24 22 21 20 19 19 19 19 19 18 17 16 16 15 15 15 15 14 14 14 14 13

GEFSCGP_500_meanwind_216.txt.gz
Wind_Speed
13 13 13 13 14 14 14 14 14 15 16 17 17 17 17 17 18 18 19 19 21 21 22 23 23 23 23 23 24 24 25 26 27 26 26 27 27 26 25 26 25 25 25 25
13 13 12 12 12 13 13 13 14 15 16 17 16 17 17 17 18 19 19 20 20 21 22 23 23 23 24 24 24 26 27 27 27 28 28 28 27 26 26 25 25 25 25 25
11 11 11 12 12 12 13 14 14 15 16 17 17 17 17 18 19 20 20 20 21 22 22 23 24 24 25 25 26 28 29 29 29 29 29 28 27 27 26 25 25 24 25 26
11 10 11 11 11 12 13 13 13 14 16 17 18 19 19 20 20 21 21 21 21 22 22 23 24 25 26 26 26 28 29 30 31 30 29 28 27 26 25 25 25 25 25 25
11 11 11 11 10 12 13 13 13 14 15 16 18 20 19 19 20 20 21 21 21 23 24 25 26 26 26 26 27 29 30 31 31 30 29 27 26 26 25 25 24 24 25 25
9 10 11 11 11 12 12 13 14 14 14 16 18 20 19 19 20 21 21 21 22 24 25 25 26 27 27 27 28 29 30 30 30 29 27 26 25 24 24 24 23 23 23 24
9 10 10 11 12 12 12 13 14 15 16 16 18 19 18 19 20 21 22 22 23 25 26 26 26 27 28 28 29 29 30 30 29 27 26 25 25 24 24 24 24 23 22 21
9 9 10 11 12 12 12 13 15 16 17 17 17 18 19 20 22 23 24 24 25 26 27 27 28 28 29 29 29 30 29 29 27 26 25 24 24 23 22 23 23 21 21 21
9 9 10 12 13 13 14 15 16 17 18 19 19 19 20 22 23 24 26 26 26 27 27 27 28 28 29 29 29 29 29 28 27 25 24 23 23 23 23 23 22 21 21 21
10 10 11 12 14 15 16 16 17 18 20 21 21 21 22 23 24 26 26 26 27 27 28 26 27 27 28 28 28 28 28 27 26 25 25 24 23 23 23 22 21 20 21 21
11 12 12 13 15 16 17 17 18 19 20 21 23 23 24 25 25 26 26 27 27 28 27 25 26 26 27 27 28 27 27 26 25 25 24 24 23 23 22 20 20 20 19 19
12 13 13 14 16 17 17 18 19 20 20 21 24 24 25 26 26 25 25 25 26 26 25 24 24 25 25 26 27 26 25 25 25 25 24 23 23 22 21 20 19 19 19 19
14 14 15 15 16 17 17 18 19 20 21 22 24 24 25 26 25 24 24 25 25 25 24 24 24 24 25 25 25 25 24 25 25 25 24 23 22 21 20 19 19 19 18 18
15 16 16 16 16 17 17 18 19 20 21 23 23 23 24 24 24 23 24 24 25 24 23 23 23 24 25 25 25 25 24 25 25 24 24 23 22 21 20 19 19 18 17 17
17 17 17 17 17 18 19 19 20 21 22 23 23 23 23 24 24 25 24 24 23 23 22 23 24 25 25 26 26 26 25 25 25 24 24 23 22 21 21 20 19 18 18 18
18 18 18 18 19 20 21 21 21 22 22 23 23 23 24 24 25 25 25 24 24 23 23 24 24 25 26 26 26 25 24 24 24 24 24 23 22 21 21 20 18 17 17 17
18 18 19 19 20 21 21 21 21 22 22 23 23 24 24 24 24 25 25 25 24 24 24 25 25 26 26 26 26 25 24 24 24 23 23 23 23 22 21 20 18 17 17 16
19 19 19 20 21 21 21 21 22 22 23 23 23 24 25 25 25 25 25 25 24 24 25 26 26 26 26 27 26 25 24 24 24 23 23 23 23 21 21 20 19 18 17 17
19 20 20 20 21 22 22 22 23 23 23 24 24 24 24 25 25 25 25 24 24 25 25 26 26 26 26 26 26 25 24 24 24 23 23 23 22 21 20 20 20 20 19 19
20 20 21 21 22 22 23 23 23 24 24 24 24 25 25 25 25 24 24 25 25 26 26 26 26 26 26 26 26 25 24 24 23 22 22 22 21 21 20 21 22 21 19 18
21 21 20 21 22 22 23 23 24 24 24 25 25 25 24 25 25 25 26 26 26 26 26 26 26 26 26 26 26 25 24 24 23 22 22 21 21 21 21 22 22 20 19 18
21 21 21 21 22 23 23 23 23 24 24 25 25 25 25 26 26 26 26 26 26 26 26 26 26 27 26 26 26 25 24 23 22 21 21 21 20 20 21 21 21 20 19 18
22 22 22 23 23 23 24 24 24 25 26 26 26 26 26 26 27 27 27 26 26 26 26 26 26 27 26 26 26 25 24 23 22 21 21 21 21 21 21 20 20 19 18 17
23 23 24 24 24 24 24 25 25 25 26 26 27 27 27 27 27 28 27 26 26 27 27 26 26 27 27 26 25 24 23 23 22 22 22 22 22 21 20 20 19 18 17 17
24 25 25 25 25 25 25 25 25 26 26 27 27 27 28 28 28 29 28 26 26 27 28 27 26 26 26 25 24 24 24 23 23 23 22 21 21 21 20 19 18 18 18 17
25 26 26 26 26 26 26 26 26 26 26 27 27 28 28 28 28 28 27 26 27 27 28 27 26 26 26 25 25 24 24 24 24 23 22 21 21 20 19 18 17 17 17 16

GEFSCGP_500_meanwind_222.txt.gz
Wind_Speed
12 12 13 14 14 14 14 14 13 14 16 15 15 16 16 16 16 17 18 19 19 20 20 21 22 22 22 22 21 22 22 23 23 24 25 25 24 24 24 25 25 25 25 24
12 13 13 14 14 14 15 14 14 16 16 15 15 15 16 16 16 18 19 20 20 20 21 22 23 23 22 21 21 22 23 24 24 25 25 25 24 24 25 25 25 25 24 24
13 14 14 14 14 13 14 15 15 15 15 15 15 15 15 16 17 18 19 20 21 21 21 22 22 22 21 22 23 23 24 24 24 25 25 25 25 25 24 24 24 24 24 23
12 13 13 13 13 12 13 14 15 15 15 14 15 15 16 17 18 19 19 20 21 22 22 22 22 22 23 24 24 24 24 24 24 24 24 24 25 24 24 24 23 23 24 23
12 13 12 12 11 12 12 13 14 14 14 14 14 14 16 18 18 19 20 20 21 22 22 21 21 22 24 24 25 25 25 25 25 25 24 24 24 24 24 24 23 22 22 21
11 11 11 11 11 11 12 12 12 12 12 13 14 15 16 18 19 20 20 20 21 22 22 22 22 23 24 24 25 26 26 26 25 24 24 25 24 24 24 24 23 22 21 21
10 10 10 10 11 12 12 11 11 11 12 14 16 16 17 18 19 19 19 20 21 23 23 23 23 23 23 24 25 26 26 25 24 25 24 24 24 24 24 23 23 22 21 22
10 10 11 11 11 12 12 11 11 12 12 13 16 17 18 19 19 19 20 21 22 23 23 24 23 23 24 24 24 25 25 24 24 24 24 24 24 23 23 23 22 22 21 21
10 11 12 12 12 12 12 12 12 13 13 14 15 18 18 19 20 21 21 22 23 24 23 23 23 24 25 24 24 24 25 23 23 23 23 23 23 22 22 21 21 21 21 21
11 11 13 13 13 12 12 13 13 13 14 15 15 17 18 20 21 21 22 23 24 24 24 24 24 25 25 25 26 25 24 23 23 23 23 23 23 22 22 21 21 21 21 21
12 12 13 13 13 13 14 14 14 14 15 15 16 17 18 21 22 23 23 24 25 25 24 24 25 25 25 26 25 25 24 24 23 23 23 23 22 22 21 22 22 22 22 22
12 12 13 13 14 14 15 15 15 15 16 17 17 19 20 22 23 23 24 24 24 24 24 24 24 25 26 26 25 25 25 24 24 24 23 22 22 21 21 21 21 21 21 21
12 12 12 13 15 15 15 15 16 16 17 17 18 20 22 23 23 23 23 24 24 24 24 24 25 25 25 25 25 25 25 24 24 24 23 22 21 21 21 21 21 20 20 21
12 13 12 13 14 16 16 16 16 17 17 18 20 21 22 23 24 24 24 24 24 23 23 24 24 24 24 25 25 25 25 24 24 24 23 22 22 22 21 21 21 20 21 21
13 13 13 14 14 15 16 17 17 18 18 19 20 21 22 22 23 23 23 24 24 24 24 25 25 24 24 25 24 24 24 23 23 23 22 22 22 21 21 21 22 21 21 21
14 15 15 16 16 16 18 18 18 18 19 20 21 21 21 21 22 23 23 23 24 24 25 25 25 25 24 23 24 24 24 24 23 22 21 21 21 21 22 22 22 22 21 20
15 16 16 17 17 18 19 19 19 19 19 20 20 21 21 21 23 23 23 23 24 25 25 26 25 24 24 24 24 23 24 24 22 21 21 20 20 20 22 22 22 20 20 19
17 17 17 18 19 19 19 19 19 19 19 20 21 21 22 22 23 23 24 24 24 25 25 24 24 23 24 24 24 24 24 23 23 22 22 21 21 22 23 22 21 20 19 19
17 17 18 18 18 19 20 20 20 20 20 20 21 22 22 22 23 24 24 24 24 25 24 24 23 23 23 23 24 24 24 23 23 23 22 22 22 23 22 22 21 20 19 18
18 18 19 19 19 20 21 21 21 21 21 22 22 22 23 23 24 24 25 25 25 25 25 24 23 23 23 23 23 24 24 23 23 23 23 22 23 22 22 21 21 20 19 18
19 19 19 20 20 22 22 21 21 21 23 23 23 23 24 24 25 25 25 25 25 25 24 24 24 24 24 24 24 24 23 23 23 23 23 23 23 23 22 21 20 19 18 17
21 21 21 20 21 23 23 22 22 22 23 23 24 24 25 25 25 26 26 25 25 25 24 24 24 24 24 24 24 24 24 24 23 23 23 23 22 22 21 20 19 18 17 15
22 22 22 22 23 23 23 22 22 22 23 24 24 25 25 25 25 25 26 25 25 25 25 25 25 24 24 24 24 24 24 23 23 23 23 22 21 21 20 19 18 17 16 15
23 23 23 23 23 23 23 23 23 23 24 24 25 25 25 25 25 25 26 25 25 25 25 25 24 24 24 24 24 24 23 23 23 23 23 23 22 21 19 18 18 18 17 16
24 24 24 24 24 24 23 23 24 24 24 25 25 25 25 25 25 25 25 25 25 25 25 25 24 24 24 24 24 24 24 24 24 24 24 23 22 20 19 18 19 18 17 17
25 25 25 24 24 24 24 24 24 24 24 25 25 25 24 24 24 25 25 25 25 25 25 24 24 25 24 24 24 24 24 25 25 25 24 23 21 19 18 19 18 18 17 17

GEFSCGP_500_meanwind_228.txt.gz
Wind_Speed
12 12 12 13 15 16 14 14 13 14 17 17 19 18 19 22 20 19 21 21 21 22 22 22 22 23 22 22 22 22 22 23 23 23 23 23 23 23 23 23 23 23 23 23
13 14 14 15 16 14 13 14 13 14 16 19 18 18 19 21 21 20 20 21 21 22 23 23 23 24 23 23 23 23 23 23 23 24 24 24 25 25 25 25 24 24 24 23
15 16 16 17 15 13 13 14 13 13 15 16 17 19 20 21 21 21 20 21 22 23 24 24 24 24 24 24 24 24 24 24 25 25 25 26 26 26 26 25 25 25 25 24
15 16 17 16 14 13 14 14 14 14 15 14 15 19 20 21 21 21 21 22 22 24 25 25 25 25 24 24 24 25 25 25 26 26 26 26 26 25 25 24 24 25 25 25
14 14 15 15 14 13 13 14 14 13 14 15 16 18 19 21 21 22 23 22 23 24 25 26 25 24 25 25 26 26 26 26 26 26 25 25 25 24 24 23 24 24 25 25
13 12 13 14 12 12 11 12 11 11 14 17 17 17 19 22 21 23 24 24 23 24 26 26 25 25 25 26 26 26 26 26 25 25 24 24 24 24 23 23 23 24 25 25
10 11 11 12 12 12 12 10 11 12 15 17 17 20 22 21 22 24 24 24 23 24 26 26 26 26 25 26 25 25 25 26 26 25 25 25 24 24 24 24 24 24 24 24
9 12 12 12 13 13 13 12 12 14 14 16 17 20 22 23 21 22 23 24 24 25 26 27 26 26 25 25 25 26 26 26 26 25 25 24 23 23 24 24 24 24 24 24
10 13 13 13 13 14 12 12 13 15 14 16 18 19 21 21 21 21 21 23 25 26 27 26 26 26 26 25 26 27 27 27 26 25 25 24 23 23 23 23 24 24 24 23
11 13 14 14 13 13 13 14 14 15 16 16 16 19 21 21 21 21 22 24 25 26 27 26 26 26 27 27 27 27 27 26 26 25 25 24 24 23 23 23 24 23 23 23
14 13 13 13 13 14 14 14 15 16 16 17 17 19 20 20 20 22 22 24 26 26 26 26 27 27 28 28 28 27 25 25 25 25 25 25 24 24 23 24 23 23 23 24
15 15 14 13 13 14 15 15 15 16 16 16 18 20 21 22 22 23 22 23 24 25 25 26 26 27 27 27 27 26 26 25 25 25 25 25 24 24 23 23 23 23 24 24
15 15 14 13 13 13 14 16 16 17 18 18 18 20 21 23 24 24 24 24 25 26 25 25 26 26 27 27 27 26 25 25 25 25 25 24 25 25 24 23 23 23 23 24
16 16 15 14 13 15 16 16 17 18 19 20 20 20 22 23 24 24 25 25 26 26 25 26 26 26 26 26 26 26 26 26 25 25 25 25 24 24 24 24 23 23 23 23
16 16 16 15 14 15 16 17 16 17 18 19 20 21 21 23 24 25 26 26 26 27 25 26 26 26 26 26 26 27 26 26 26 25 25 24 24 23 23 23 22 22 22 23
16 16 16 16 15 15 16 16 16 16 17 19 20 22 22 22 24 26 26 27 27 27 26 28 26 26 26 26 27 26 26 26 26 25 25 24 23 23 23 22 21 21 22 22
16 16 16 15 15 16 16 16 17 18 18 20 21 23 23 23 24 24 24 25 26 26 26 27 27 26 27 27 27 27 26 26 26 26 25 24 24 23 22 21 21 22 22 22
17 18 18 18 17 17 17 17 18 19 20 21 22 22 22 22 23 24 25 26 26 27 26 27 27 27 27 27 27 27 26 26 26 25 24 23 23 23 22 22 22 22 23 23
18 19 19 18 18 19 18 19 19 20 22 22 22 22 23 24 24 25 25 26 27 27 26 27 27 27 27 27 27 26 26 26 25 24 24 24 23 23 23 23 23 23 23 23
19 19 19 19 19 19 19 21 21 22 24 24 23 23 23 24 25 25 26 26 27 27 27 27 27 27 27 28 27 27 27 26 26 25 25 25 24 24 24 24 23 22 22 22
20 20 20 19 20 20 22 23 23 24 25 25 24 24 25 25 26 26 26 26 27 28 28 27 27 27 28 28 27 27 26 26 26 26 26 25 25 25 24 24 22 22 22 21
21 21 20 21 21 22 24 24 24 25 25 26 25 25 26 26 26 26 26 27 28 28 28 27 28 28 27 27 27 26 26 26 26 26 26 25 25 25 24 23 22 21 21 21
23 23 24 25 25 24 25 26 26 26 27 27 26 26 26 26 26 27 27 27 28 28 28 27 28 27 27 26 26 26 25 25 25 26 25 25 25 25 24 23 22 21 21 20
26 25 26 27 26 26 26 27 26 27 27 27 27 27 27 27 27 27 27 27 28 28 28 27 27 27 27 27 26 26 25 25 25 25 25 26 26 25 24 22 21 20 20 20
27 27 27 28 28 27 27 27 27 28 28 27 27 28 28 28 27 27 27 27 27 28 28 27 27 27 27 26 26 26 25 25 25 25 26 26 26 24 23 22 21 20 19 19
28 28 28 29 28 29 28 29 28 28 28 28 28 28 28 28 28 28 27 27 27 28 28 28 28 27 27 27 27 27 26 26 26 26 27 26 25 24 22 21 20 20 20 19

GEFSCGP_500_meanwind_234.txt.gz
Wind_Speed
14 13 12 12 12 12 13 14 15 14 14 15 16 17 17 18 18 20 21 20 19 19 19 18 18 19 21 22 21 22 22 22 22 21 21 21 20 20 20 21 21 21 21 21
14 13 12 13 14 15 16 16 16 15 16 16 17 17 17 18 18 19 20 21 20 20 21 20 19 20 21 22 22 22 23 23 22 21 22 21 22 22 22 22 22 22 23 23
14 12 13 13 14 16 16 16 15 15 15 16 18 17 17 17 18 19 20 19 20 20 20 19 20 22 22 22 22 23 23 23 22 22 22 22 23 23 23 23 23 24 24 23
13 13 13 14 15 15 15 15 14 14 16 17 17 18 17 17 17 17 19 19 20 20 20 22 22 22 23 23 22 23 23 22 22 23 23 23 22 23 23 23 23 24 24 23
13 13 14 15 16 16 15 15 15 15 16 17 17 19 17 16 17 17 18 19 19 19 19 21 22 22 23 24 23 24 23 23 23 23 24 24 24 23 22 22 23 23 24 23
11 11 12 14 16 16 15 15 16 16 17 20 18 19 18 17 17 17 18 19 18 19 20 22 23 23 23 23 24 24 23 23 22 23 24 24 24 23 22 22 23 23 23 23
11 11 12 13 13 15 16 17 18 17 17 19 18 20 19 17 16 17 18 19 19 19 20 22 23 23 23 24 24 23 23 23 23 23 24 24 24 23 23 23 23 22 22 22
12 11 11 12 14 15 16 17 17 17 17 17 17 19 18 16 17 17 19 19 19 20 21 22 22 23 23 24 24 22 22 23 23 23 24 24 24 23 22 22 22 22 22 23
12 12 12 13 15 15 15 16 17 17 17 18 18 18 16 17 18 18 19 19 20 21 21 22 22 23 23 24 24 23 22 23 23 24 24 23 22 21 21 21 21 22 22 23
12 13 12 13 14 15 15 15 15 17 18 19 18 17 16 17 18 19 20 20 21 22 23 23 22 22 23 23 24 24 23 23 24 24 24 23 22 21 21 21 22 22 22 23
14 14 13 14 15 14 14 15 15 16 17 18 19 18 17 18 19 20 21 21 21 21 22 23 23 22 22 23 24 22 23 24 24 23 23 23 22 21 21 22 22 22 23 23
15 16 14 13 13 14 15 15 16 17 18 19 20 20 19 19 19 20 20 20 22 22 22 23 23 23 23 23 23 23 24 24 24 24 23 23 22 22 22 22 22 22 22 23
14 15 15 14 14 14 15 15 16 17 18 19 21 21 20 19 20 20 20 21 21 21 22 22 23 23 23 23 23 24 25 25 24 24 24 23 23 22 22 22 22 22 22 22
14 15 15 14 13 14 15 15 16 18 19 20 20 20 20 20 20 20 21 22 22 22 22 23 23 23 23 24 24 25 25 26 25 25 24 24 24 23 23 22 21 21 22 22
16 16 16 15 15 16 16 15 16 17 19 20 20 21 19 19 20 20 21 21 22 22 22 23 24 23 23 25 25 26 26 26 26 26 24 24 24 24 23 22 22 22 22 23
18 19 18 16 16 17 16 16 16 17 18 19 20 19 19 21 21 21 21 22 22 23 24 24 24 25 25 26 26 27 27 26 26 25 24 24 24 24 23 23 23 24 24 24
20 19 19 18 17 17 17 16 17 18 18 19 20 20 20 21 21 21 22 23 24 24 25 24 24 25 27 28 27 27 26 26 25 25 24 24 24 24 24 25 25 25 25 24
21 20 20 19 18 18 17 17 18 17 18 19 20 21 21 21 22 22 23 23 23 24 24 24 25 27 27 27 27 26 26 26 26 25 25 24 25 25 26 27 26 26 24 24
20 20 20 20 19 19 17 18 18 18 19 19 20 21 21 21 22 23 23 23 23 24 24 26 27 28 28 28 27 27 27 27 26 26 26 26 26 26 26 26 26 25 24 24
21 21 21 20 21 20 19 19 19 20 20 20 20 21 21 22 23 23 23 24 25 25 26 27 28 28 28 28 28 28 27 27 27 27 27 27 27 27 26 26 25 24 23 23
21 21 21 21 22 21 20 20 20 21 20 21 21 22 22 22 22 23 24 25 26 26 27 28 28 28 28 28 28 27 27 26 26 27 27 27 27 27 26 25 24 23 22 21
22 22 23 23 24 23 22 22 22 22 21 21 22 23 23 23 24 25 26 27 26 27 27 27 27 27 28 28 27 27 27 26 27 27 26 26 26 26 25 24 24 22 21 20
24 24 24 25 24 24 23 23 23 22 23 23 23 24 24 24 25 26 27 28 27 27 27 27 27 27 28 28 28 28 27 27 27 26 26 26 25 24 24 24 23 21 20 20
25 25 25 25 25 24 24 24 24 24 24 25 25 25 25 26 27 27 27 27 27 27 27 27 27 28 28 27 27 27 27 27 26 26 26 25 25 24 24 23 22 21 20 19
26 25 25 25 24 24 25 25 25 26 26 27 27 27 27 26 26 26 27 27 27 27 27 27 27 28 28 27 27 27 27 26 26 26 26 26 26 25 23 23 22 21 20 19
26 26 27 26 25 25 26 26 27 28 28 27 27 28 27 26 25 26 26 27 27 27 27 28 28 28 28 27 28 28 28 27 27 27 26 26 25 24 23 22 21 21 21 20

GEFSCGP_500_meanwind_240.txt.gz
Wind_Speed
16 16 16 16 16 16 16 16 15 15 17 18 17 17 17 17 17 16 16 16 17 18 18 18 18 19 20 21 20 20 20 20 21 20 20 20 19 19 19 20 20 20 20 21
17 16 16 17 18 18 18 18 17 17 17 19 19 18 18 18 18 18 19 19 19 18 18 19 19 19 20 20 20 21 21 21 21 21 20 19 19 19 20 20 20 20 21 21
17 16 18 19 19 20 19 18 18 19 19 19 20 19 18 18 19 20 20 20 19 18 19 19 19 19 19 19 20 21 21 22 22 21 21 20 20 20 20 20 20 21 22 22
17 17 18 19 19 18 17 18 19 20 20 21 21 21 18 19 20 20 20 20 19 19 20 20 20 20 20 20 21 21 22 22 22 21 21 21 20 20 20 21 21 21 22 23
16 16 16 16 16 17 17 18 19 21 22 22 21 22 20 20 20 20 20 20 20 20 20 19 20 20 20 20 20 21 22 21 21 21 21 21 21 21 21 21 21 21 21 22
15 16 16 16 16 17 18 19 20 22 23 23 21 23 22 20 21 21 20 19 20 19 20 20 19 19 20 20 21 21 21 22 22 22 22 22 22 22 22 22 22 21 21 21
15 16 16 16 16 17 18 19 21 23 23 23 22 24 22 21 20 20 20 20 20 20 19 19 19 20 20 21 22 21 22 23 22 22 22 23 23 22 22 22 21 21 21 22
15 16 16 16 17 18 19 20 22 23 24 23 23 23 21 21 21 20 21 21 21 20 21 21 21 21 21 22 22 22 23 23 23 23 23 24 23 22 22 21 21 21 22 22
16 15 15 17 17 19 19 20 21 23 24 25 24 22 21 21 21 21 21 22 22 22 22 21 21 21 22 22 23 24 24 24 24 24 23 23 23 23 22 21 22 22 22 23
16 16 15 17 18 19 19 19 21 22 24 25 24 22 22 21 21 21 21 21 21 22 22 21 21 22 22 23 24 25 26 25 24 24 23 23 24 23 23 23 23 23 23 23
16 17 16 16 17 18 19 20 21 22 23 24 24 22 21 21 21 21 21 21 21 21 21 21 21 22 22 24 24 24 24 24 24 23 23 24 24 23 23 24 23 24 24 24
16 18 17 17 18 19 20 20 21 23 23 24 24 22 20 20 21 21 20 20 21 21 21 21 21 22 23 24 24 24 24 25 24 23 23 23 23 23 23 23 24 24 24 24
17 18 18 19 20 20 21 21 21 22 23 23 23 21 20 20 20 20 20 20 21 21 21 21 22 22 22 23 23 24 24 24 25 24 24 23 24 23 23 24 24 23 23 23
20 20 20 20 21 21 22 22 21 21 22 22 21 21 19 20 20 19 19 20 20 21 21 22 22 22 22 22 23 24 24 25 25 24 24 24 24 24 23 23 24 23 23 23
21 21 21 22 22 22 22 22 21 21 20 21 20 20 19 19 19 18 19 20 21 21 21 21 22 22 22 23 23 24 25 25 25 25 24 24 24 24 24 24 24 24 23 24
22 22 22 22 22 22 22 20 20 20 20 20 20 19 18 19 19 19 20 21 20 20 20 21 21 22 22 23 24 24 25 26 26 26 26 25 25 25 25 25 25 25 25 24
22 22 23 23 23 23 21 20 20 20 20 20 20 19 19 19 19 20 20 20 20 21 21 21 21 22 23 23 24 25 26 26 27 26 26 26 26 25 25 26 25 25 25 25
22 22 23 23 23 24 21 20 20 20 20 20 21 21 21 21 21 21 21 21 22 23 23 23 23 23 24 24 25 26 27 27 27 27 27 27 26 26 26 26 26 25 24 25
23 24 25 25 25 24 23 22 22 22 21 20 21 22 22 22 22 22 22 22 23 24 24 24 25 25 25 25 26 26 27 28 28 28 27 27 26 26 27 26 26 25 25 25
24 24 24 25 25 25 24 23 23 24 23 22 22 22 22 23 23 23 23 23 24 24 25 25 26 26 26 26 26 27 28 27 28 28 28 27 27 26 26 26 26 25 25 25
24 25 24 25 25 24 23 23 24 24 24 24 24 23 24 24 24 24 24 25 25 26 26 26 26 26 26 26 26 27 28 28 28 28 28 28 27 27 26 26 26 25 24 24
25 25 24 24 25 24 24 24 24 24 24 24 25 25 24 24 24 24 25 25 25 26 25 26 27 27 28 27 27 27 28 28 28 28 28 28 27 27 27 26 26 25 24 22
26 25 25 25 24 25 25 24 25 25 25 25 25 26 26 26 25 25 25 25 26 26 26 26 27 28 28 27 27 28 28 28 28 28 28 28 27 28 27 26 25 24 23 23
26 26 26 26 26 26 26 27 26 26 26 26 26 26 27 27 26 26 26 26 27 26 26 27 27 27 27 26 26 27 28 27 27 28 28 29 28 28 27 26 25 24 24 23
27 27 27 27 27 27 27 28 28 27 27 27 27 27 27 27 26 26 27 27 27 27 27 27 27 27 26 26 27 28 28 27 28 29 29 29 28 28 27 26 25 24 23 23
28 29 29 28 28 28 28 28 28 29 29 29 28 28 28 27 27 26 26 27 27 27 27 26 26 26 27 26 27 27 28 29 29 29 28 28 28 27 26 25 24 24 23 23

GEFSCGP_500_meanwind_246.txt.gz
Wind_Speed
16 15 15 15 16 16 16 17 17 17 19 18 18 17 17 17 17 18 17 17 17 17 17 17 16 16 17 17 17 17 17 17 17 17 17 18 18 18 19 19 19 19 19 19
16 16 16 16 16 17 17 17 17 18 19 18 18 18 17 17 17 17 17 17 18 18 18 17 17 18 18 18 18 18 19 19 19 19 19 20 20 20 21 21 21 20 20 21
16 16 17 17 17 17 17 17 18 19 20 19 19 18 18 17 17 18 18 18 18 19 19 18 18 19 19 19 19 19 19 20 21 20 20 21 22 22 22 21 21 21 21 21
17 17 18 17 17 17 18 18 18 19 20 19 19 19 18 18 18 18 18 18 18 19 19 19 20 20 20 20 20 21 21 21 22 22 22 22 22 22 22 22 22 22 22 22
17 17 18 17 17 18 18 18 18 18 19 19 19 20 18 18 19 19 19 19 19 19 20 20 20 21 21 21 21 21 21 22 22 22 23 22 22 22 22 23 22 22 22 22
17 17 17 17 17 17 17 18 18 18 19 20 19 21 20 19 20 20 20 20 20 20 20 20 20 21 22 22 21 22 22 22 22 22 23 23 23 22 22 22 22 21 21 21
16 17 16 17 17 17 17 17 17 17 18 20 20 22 21 20 20 20 21 20 20 20 20 20 20 21 22 22 22 22 22 22 22 23 23 24 23 22 22 21 21 20 21 20
16 16 16 17 17 17 17 17 17 18 18 19 20 22 21 20 20 21 21 21 21 21 21 21 21 21 21 21 22 22 22 22 23 23 24 24 23 22 22 21 21 20 20 21
17 17 17 17 17 17 18 18 18 19 20 20 20 22 20 20 20 21 21 22 22 21 21 21 21 21 21 21 21 20 21 22 23 23 24 24 23 23 23 22 22 21 20 21
17 18 18 18 18 18 18 18 19 19 20 20 21 21 20 21 21 22 22 22 22 22 21 21 21 21 20 20 20 20 21 22 23 23 23 23 23 23 23 23 23 22 21 22
17 18 18 19 19 18 19 19 19 20 21 21 21 21 21 21 22 22 21 22 21 21 21 20 19 19 19 19 20 20 21 22 23 23 22 22 22 23 22 22 22 21 22 23
17 18 18 18 19 19 19 19 19 21 22 22 23 21 22 22 22 21 21 20 20 20 20 19 18 18 18 19 20 20 21 22 22 23 22 22 22 22 22 22 22 22 23 24
18 18 18 17 18 19 19 19 20 21 22 22 22 21 22 21 21 22 21 20 19 19 19 18 17 18 19 20 21 21 22 22 22 22 22 22 23 23 23 23 23 23 23 23
20 19 19 18 17 18 19 19 20 20 20 21 21 20 21 21 21 20 20 19 19 19 18 18 18 18 20 21 21 21 21 21 21 21 21 22 23 23 23 23 23 24 24 24
21 21 21 19 19 20 20 20 20 20 20 20 20 20 20 20 20 20 19 19 19 18 18 18 19 19 20 21 20 20 21 21 21 22 22 23 23 23 23 23 24 25 25 24
23 23 22 21 21 21 22 22 21 21 21 21 21 21 20 20 20 20 19 19 19 18 18 19 19 20 20 20 20 21 22 22 22 22 22 23 23 23 24 24 25 25 25 25
23 23 23 22 22 23 24 22 22 22 22 21 21 21 21 20 19 19 19 19 19 19 19 20 21 21 21 20 21 21 22 22 23 23 23 23 23 24 24 25 25 25 25 25
23 23 23 23 23 24 23 22 23 23 22 22 22 22 21 20 19 19 20 20 20 20 21 22 21 21 21 21 21 22 22 22 23 24 24 24 24 24 25 26 26 25 25 25
23 22 22 22 23 24 23 22 23 23 23 22 22 22 21 20 20 21 21 22 22 22 23 23 22 22 22 22 22 23 23 24 24 25 25 24 25 25 26 26 26 26 25 25
23 23 23 22 22 23 23 23 23 23 23 22 21 21 21 21 21 22 23 23 24 23 23 23 23 23 23 23 23 23 23 23 24 24 24 25 26 26 26 26 26 25 24 24
23 23 24 24 24 24 24 23 22 22 22 22 22 21 22 22 23 24 24 24 24 24 24 24 24 24 23 22 22 22 23 23 24 25 26 26 26 26 26 26 25 25 24 23
24 24 24 24 24 24 24 23 22 22 23 23 23 23 23 23 23 24 24 24 24 24 24 24 23 23 22 22 22 23 23 24 25 26 26 26 27 26 26 26 25 24 24 23
25 24 24 25 25 25 24 24 24 23 23 23 24 24 24 24 23 24 24 24 24 24 24 23 23 23 23 23 23 24 25 25 25 26 27 27 27 26 26 26 26 25 24 23
26 25 25 26 26 26 25 25 25 24 24 24 24 24 25 24 24 24 24 24 24 24 24 24 24 24 24 24 25 25 26 25 26 26 27 27 27 27 26 26 25 24 23 23
27 26 26 27 27 27 26 26 26 25 25 24 25 25 25 25 24 24 25 25 25 24 24 24 24 25 25 25 25 25 26 26 26 27 27 26 26 27 26 25 24 23 23 22
28 27 27 27 27 27 27 27 27 26 25 25 24 24 24 24 24 25 25 25 25 25 25 25 25 25 25 26 26 26 26 27 27 28 27 27 27 27 26 25 25 24 24 22

GEFSCGP_500_meanwind_252.txt.gz
Wind_Speed
14 16 15 15 16 16 14 14 16 17 16 17 18 19 20 20 20 21 21 20 20 21 21 20 19 19 19 19 19 20 20 20 19 18 19 20 20 20 20 20 19 19 19 20
16 16 14 15 16 15 14 16 17 17 17 18 18 18 19 21 21 20 21 22 22 21 21 20 19 19 19 19 20 20 21 21 20 19 20 20 20 20 20 20 20 20 21 22
17 15 15 15 15 16 16 16 18 19 18 18 18 18 18 21 21 19 20 21 21 20 20 19 19 19 20 20 21 21 21 21 20 20 21 21 21 21 21 20 21 22 22 23
17 16 16 17 17 17 18 17 18 19 18 19 20 20 19 21 22 20 20 21 21 20 20 19 19 20 21 21 21 20 21 22 21 21 22 22 22 22 22 22 23 23 23 24
16 15 17 18 18 18 18 17 18 17 18 20 21 21 18 20 21 21 22 22 21 21 21 21 21 20 21 21 21 21 22 22 21 22 23 23 23 22 23 23 23 23 23 24
16 16 17 18 19 19 18 17 18 17 19 22 20 20 20 19 19 21 22 23 21 21 21 22 22 22 21 22 22 22 22 22 22 22 23 24 23 23 23 23 23 23 24 24
16 17 18 18 18 18 18 18 18 18 18 20 19 19 20 20 20 21 21 22 22 22 22 22 23 23 22 22 23 23 23 23 23 23 23 23 23 22 22 22 22 23 24 25
16 17 17 18 18 17 17 17 18 18 18 18 18 20 21 21 20 20 20 20 21 22 22 23 23 23 23 23 24 23 23 23 24 23 23 23 22 22 22 23 24 24 24 25
18 18 17 19 18 19 18 18 18 19 19 20 19 20 21 21 20 20 21 22 23 22 22 23 23 24 23 24 24 23 23 23 24 23 23 22 22 23 23 24 24 24 24 25
19 19 17 17 17 18 19 18 18 18 19 19 19 19 20 22 23 23 24 25 26 24 23 23 23 24 23 23 24 23 23 24 23 23 23 22 23 24 24 24 24 24 24 24
20 21 19 18 18 17 19 20 19 19 19 19 20 20 20 22 23 25 26 27 25 23 23 24 24 23 23 23 23 24 24 23 23 22 22 22 23 23 24 24 24 25 25 24
19 21 21 19 18 19 21 20 19 21 21 20 21 23 21 23 25 25 27 27 26 25 24 24 24 23 23 23 23 23 23 22 22 22 22 22 23 24 25 25 25 25 25 25
21 22 21 19 20 20 20 19 19 21 21 21 22 23 23 24 25 24 25 26 26 25 24 24 23 23 23 22 22 22 22 21 22 22 23 23 24 24 25 25 25 25 25 25
23 23 22 21 19 20 21 19 20 21 21 22 22 22 23 23 24 24 24 24 25 25 24 23 22 22 23 22 22 22 22 22 22 22 23 23 24 24 24 24 24 24 25 25
25 25 24 22 21 22 23 21 22 22 22 22 23 23 23 25 24 24 24 24 24 23 24 23 22 23 23 23 22 22 22 22 22 22 23 24 24 24 24 24 25 25 26 26
26 25 24 23 22 22 23 22 22 22 22 23 24 25 24 25 25 24 24 24 23 23 24 24 23 23 23 23 22 22 22 22 23 23 23 24 24 24 25 25 25 26 26 26
25 24 25 24 21 22 24 22 22 23 24 24 25 26 26 26 25 24 23 24 23 24 23 23 23 23 23 23 22 22 23 23 23 24 24 25 25 25 26 25 26 26 26 26
24 24 24 24 22 24 22 21 22 24 26 25 24 25 26 26 25 25 25 25 24 24 23 24 24 23 23 23 23 23 23 24 24 24 24 24 25 26 26 26 26 26 26 27
24 24 24 24 23 23 21 21 22 24 25 25 25 25 25 26 26 25 24 24 24 24 24 24 25 24 24 23 23 23 24 23 24 24 25 25 26 27 26 26 26 26 27 27
24 24 24 24 24 24 23 23 23 24 26 26 26 26 26 27 26 26 24 24 25 25 25 25 25 24 23 23 23 24 23 23 24 25 25 26 27 27 27 27 27 27 27 27
24 25 26 25 26 26 26 25 24 25 26 26 27 28 28 27 26 25 25 25 26 26 25 25 25 24 23 23 23 23 23 23 24 25 26 27 28 28 27 27 28 28 27 27
24 25 26 27 28 27 26 27 27 27 26 26 27 27 27 27 26 26 26 25 26 26 25 24 24 24 23 24 24 24 23 24 25 26 27 28 28 28 28 28 28 28 27 27
24 26 27 28 30 30 29 28 28 28 27 27 27 27 27 27 27 26 25 25 24 24 24 25 25 25 24 24 24 24 24 25 25 27 27 27 27 27 28 28 29 29 28 28
26 28 29 30 30 30 30 30 30 29 28 28 28 28 28 28 28 26 26 24 24 24 24 25 25 25 24 23 23 24 24 25 25 26 26 26 26 27 28 28 29 28 28 28
28 30 31 31 30 30 29 30 29 29 28 28 28 29 29 28 27 27 26 25 24 24 25 25 26 25 24 23 24 25 25 25 26 26 26 27 27 28 28 29 29 28 28 28
31 30 31 32 32 32 31 31 30 29 28 27 28 29 29 28 28 27 26 26 26 25 26 26 26 25 25 25 25 25 25 26 26 26 26 27 28 29 30 30 30 28 28 27

GEFSCGP_500_meanwind_258.txt.gz
Wind_Speed
18 18 16 15 16 15 14 13 14 12 12 15 17 18 16 17 18 17 17 17 17 18 17 16 16 16 17 16 17 16 16 16 16 17 17 17 17 15 15 15 16 16 16 17
19 18 15 16 16 16 15 15 15 14 13 16 17 17 16 17 17 16 17 17 17 17 17 16 17 17 16 17 17 16 16 16 17 17 17 17 17 16 16 16 16 17 17 18
18 16 16 17 17 16 16 16 15 14 13 15 18 18 16 17 16 17 18 18 17 18 19 18 17 16 16 17 16 16 17 17 17 17 17 17 17 16 17 17 17 18 18 18
18 17 18 17 16 15 16 14 15 15 15 15 15 18 16 16 16 16 18 18 18 18 19 18 17 16 16 17 18 18 18 18 18 18 18 18 17 17 17 18 18 19 19 18
18 18 18 17 15 15 15 15 16 16 16 16 17 20 17 16 17 17 18 19 19 18 18 18 18 17 16 17 19 19 18 18 19 19 19 19 18 18 18 17 17 18 18 18
18 18 18 17 16 16 16 15 16 16 17 18 16 19 18 16 18 18 18 18 19 18 17 17 18 18 17 18 18 19 19 19 20 20 20 20 19 19 18 18 18 18 19 19
19 19 17 17 17 16 16 17 18 18 18 18 16 19 18 17 17 18 18 19 19 18 18 17 19 19 19 19 19 19 20 20 21 21 21 21 20 20 19 19 19 19 19 20
19 19 17 18 18 16 16 17 19 19 20 20 19 20 18 18 18 19 20 19 19 19 18 18 19 19 20 20 19 20 21 21 22 22 21 21 21 21 20 21 21 20 20 21
18 18 17 18 17 18 18 18 18 20 21 22 21 21 19 19 20 19 21 21 19 19 19 18 18 18 19 20 20 22 21 22 22 22 22 22 21 21 21 22 21 21 22 22
19 18 18 17 18 19 20 20 21 22 23 23 23 21 20 20 20 19 19 19 18 19 19 19 19 20 19 20 20 22 22 23 22 23 23 23 22 22 22 22 21 22 22 23
21 21 19 19 20 21 21 21 23 23 24 25 26 23 21 21 21 21 20 20 20 20 19 19 20 22 21 21 22 23 23 22 22 22 23 22 22 23 23 22 22 22 22 23
22 22 21 21 21 21 23 24 24 25 26 27 28 25 21 21 22 22 22 21 21 21 20 20 21 23 23 23 23 24 23 21 21 22 22 22 23 23 23 22 23 23 22 22
22 23 23 23 22 23 24 24 25 26 27 27 27 25 22 22 23 23 23 22 21 21 20 21 22 24 23 23 24 24 23 21 22 22 22 22 23 23 23 23 23 23 23 23
21 23 23 24 23 24 24 25 26 26 28 28 27 26 25 25 24 23 23 22 21 20 21 22 22 23 24 25 24 24 24 22 23 23 23 23 23 23 22 22 23 23 24 23
24 25 25 25 24 25 25 25 26 27 28 29 27 26 26 25 23 23 23 21 20 21 23 22 23 24 24 25 24 23 23 23 23 23 22 22 22 22 22 22 22 22 23 23
26 27 26 26 26 27 27 27 27 27 27 27 26 25 25 24 23 23 23 22 22 23 23 23 23 22 23 23 23 22 22 22 22 23 23 22 21 22 22 22 23 23 24 24
28 28 27 26 26 26 26 25 26 25 24 25 26 25 24 24 23 23 22 23 23 24 24 23 22 23 23 22 21 21 21 22 22 22 22 22 23 23 23 23 24 25 25 25
28 29 28 27 26 28 25 24 25 25 25 26 26 25 24 23 23 23 23 23 23 23 23 22 23 24 23 22 22 23 23 22 23 22 23 23 24 24 24 25 25 25 26 25
26 26 27 27 27 27 25 25 25 24 25 25 25 24 24 22 22 22 22 23 23 23 23 23 23 23 23 23 23 23 23 22 22 22 23 23 24 25 24 24 25 25 26 26
26 27 27 27 28 27 25 25 25 26 27 25 25 25 24 24 24 23 23 23 23 24 24 24 23 23 23 23 23 23 22 22 22 22 23 24 24 24 24 25 26 26 27 27
25 26 27 28 28 28 26 26 25 26 25 25 24 24 24 23 23 23 23 24 24 24 24 24 24 23 24 24 24 24 24 24 24 24 24 24 24 24 25 26 26 27 27 27
25 26 27 28 29 28 25 25 25 25 25 25 23 23 23 23 23 24 25 25 25 25 25 25 24 24 24 24 24 24 25 24 25 25 25 24 24 24 25 26 27 27 27 27
26 26 27 27 27 26 25 24 25 26 26 25 24 24 24 23 23 24 24 25 26 26 26 26 25 25 25 25 25 25 25 25 25 25 25 25 24 25 25 26 27 27 26 26
27 28 27 28 27 26 26 25 26 26 26 26 25 25 26 25 25 25 26 27 28 28 28 27 26 26 26 26 25 26 25 25 25 25 26 25 25 26 26 26 27 26 26 25
28 28 28 28 27 27 27 27 27 28 27 27 27 26 26 26 26 27 28 29 29 29 28 27 26 27 27 27 26 26 26 26 26 26 26 26 26 26 26 26 26 26 26 26
27 28 28 28 27 26 26 27 28 28 28 28 27 27 26 27 28 28 29 29 29 28 27 27 27 27 26 27 26 26 26 26 25 25 26 26 26 26 26 26 26 26 26 26

GEFSCGP_500_meanwind_264.txt.gz
Wind_Speed
22 22 21 21 21 21 22 20 19 17 18 20 21 20 18 18 18 18 19 18 17 16 16 17 17 17 17 17 17 17 18 17 16 16 16 15 15 16 16 16 16 16 16 17
22 21 21 22 22 22 21 21 20 19 19 21 22 21 20 19 19 19 19 18 18 17 17 17 17 18 18 18 18 19 18 17 16 16 15 15 15 16 16 16 16 17 18 18
22 20 22 23 23 23 22 21 20 20 21 22 23 22 20 19 19 18 18 18 18 17 17 17 17 18 18 18 18 18 19 18 17 16 16 16 16 16 16 17 17 18 19 19
22 21 23 23 23 23 22 21 21 21 22 22 22 22 18 17 17 17 18 18 18 18 18 17 17 18 18 18 19 19 19 19 18 17 17 17 17 17 18 18 17 17 18 18
21 22 23 23 22 23 22 21 22 21 22 22 21 22 18 17 17 18 18 18 18 19 19 18 18 18 18 19 19 19 18 18 17 18 17 17 17 17 17 17 17 17 18 18
21 22 23 22 22 22 22 22 23 22 22 22 20 22 20 18 19 19 19 19 19 20 20 19 20 20 19 19 19 19 18 18 19 19 17 17 17 18 18 18 19 19 19 19
22 23 23 23 23 23 23 23 23 23 23 22 20 21 21 18 19 19 20 20 20 21 20 20 20 20 20 20 20 19 19 19 19 18 18 17 18 18 19 19 20 21 20 20
23 24 23 23 23 23 23 23 23 23 23 21 20 21 20 19 19 20 21 22 21 21 20 20 20 20 20 20 21 21 19 19 18 18 18 18 19 19 20 20 21 21 22 21
22 22 23 24 24 24 24 24 23 24 24 23 22 21 20 20 21 21 22 22 22 22 21 21 21 21 20 20 21 21 20 19 19 19 19 20 20 20 21 21 21 21 22 23
23 23 23 23 24 26 25 24 24 24 25 25 24 22 20 20 21 20 21 22 23 23 22 22 21 20 21 21 21 21 20 19 20 20 20 20 21 21 21 21 21 22 23 23
24 24 23 24 24 24 24 25 25 25 26 26 26 23 21 22 22 21 21 22 23 23 22 22 22 21 21 21 22 21 20 20 20 20 21 21 21 22 22 22 23 23 23 24
25 25 23 23 23 24 24 25 25 26 26 26 27 24 23 23 22 22 22 23 23 23 22 22 21 21 21 22 21 21 21 21 21 21 22 22 22 23 23 23 24 24 25 25
24 24 24 24 24 24 25 25 26 27 27 27 27 25 24 24 23 23 23 24 24 23 22 21 21 22 22 22 22 22 22 21 21 22 22 23 24 24 24 24 25 25 26 26
24 24 24 25 24 24 25 26 26 27 28 28 27 27 26 26 25 23 23 23 23 22 21 21 21 22 22 22 22 22 22 21 22 22 23 24 24 24 25 25 25 26 26 26
25 24 25 25 24 25 26 25 25 26 27 28 28 27 26 26 25 24 24 23 23 22 21 21 22 22 22 22 23 22 22 23 22 23 24 24 25 25 25 25 25 26 26 26
26 26 25 25 25 26 27 26 26 26 27 28 28 27 26 26 25 24 24 23 23 22 22 22 23 23 23 23 23 22 23 23 23 23 24 23 24 25 25 25 25 26 27 27
27 27 26 25 25 27 28 26 26 27 27 28 28 27 26 25 24 25 24 23 22 23 22 22 23 24 24 23 23 23 23 24 24 24 23 23 23 23 24 24 25 25 26 26
27 27 27 27 26 28 26 26 27 27 28 27 27 26 26 25 24 25 24 23 22 23 24 23 23 24 24 24 24 24 24 24 24 24 24 24 24 24 25 25 25 26 25 25
27 27 27 27 28 28 27 27 27 28 27 27 26 25 25 25 24 25 24 23 23 23 24 24 24 24 24 25 25 25 25 25 25 25 25 25 25 25 25 25 26 25 25 24
26 26 27 27 28 28 27 27 28 29 28 27 27 26 25 25 24 24 23 23 23 24 24 23 23 23 23 24 24 25 25 25 26 26 26 26 26 26 25 26 25 25 25 25
25 26 27 27 28 29 27 27 28 29 28 27 26 26 26 26 25 24 24 23 23 24 23 24 23 24 24 24 24 24 25 25 26 26 26 26 26 25 26 26 26 26 26 25
26 27 28 28 28 29 27 27 28 27 27 27 26 26 26 26 26 25 24 23 23 23 24 23 23 23 23 23 24 25 25 25 25 26 26 25 26 26 26 26 26 26 26 26
27 27 28 28 28 28 28 28 27 27 27 27 27 27 27 27 26 26 24 24 24 24 23 23 23 23 23 24 25 25 25 25 25 25 25 25 25 25 25 25 26 27 27 27
25 26 27 28 27 28 28 29 29 28 27 27 27 26 26 27 27 27 26 26 26 26 25 25 25 25 26 26 26 26 25 25 24 24 24 25 24 24 24 25 27 28 28 28
24 25 26 27 27 27 28 29 29 28 28 27 27 26 26 27 26 26 27 27 27 27 26 27 27 26 26 26 26 25 25 25 24 24 24 25 24 25 25 26 27 27 28 27
25 25 26 26 27 27 27 27 27 27 27 26 26 26 26 26 27 27 27 27 27 27 27 27 27 27 27 27 26 25 26 26 26 26 26 26 26 26 26 26 26 26 26 25